This demonstration page uses our WeatherBlox Daily Observations layout. Learn more.

Left ArrowRight Arrow

44.8408, -93.29828

Hourly Observations for May 12, 2015

Temp ( °F °C ) Dew Point ( °F °C ) Humidity (%) Winds ( mph kmh ) Pressure ( in mb ) Visibility ( mi km ) Precip ( " mm )
12:35 am 00:35 Cloudy with Drizzle 45 7.2 43 6.1 93 93 WNW 13 20 29.80 1009 3 4 0.00 0.03
12:46 am 00:46 Cloudy with Drizzle 44 6.7 43 6.1 96 96 W 14 22 29.83 1010 3 4 0.00 0.03
12:53 am 00:53 Cloudy with Drizzle 44 6.7 43 6.1 96 96 W 15 24 29.81 1009 3 5 0.00 0.03
1:32 am 01:32 Cloudy with Drizzle 43 6 43 6 100 100 WNW 14 22 29.83 1010 3 4 0.00 0.00
1:45 am 01:45 Cloudy with Drizzle 43 6.1 42 5.6 97 97 WNW 16 26 29.85 1011 3 5 0.01 0.25
1:53 am 01:53 Cloudy with Drizzle 43 6.1 42 5.6 97 97 WNW 12 19 29.84 1010 3 5 0.01 0.25
2:20 am 02:20 Cloudy with Drizzle 43 6 41 5 93 93 WNW 18 30 29.85 1011 4 6 0.00 0.00
2:53 am 02:53 Cloudy with Drizzle 41 5 40 4.4 96 96 WNW 17 28 29.87 1012 4 6 0.01 0.25
3:08 am 03:08 Cloudy with Drizzle 41 5 39 4 93 93 NW 15 24 29.88 1012 5 8 0.00 0.00
3:15 am 03:15 Cloudy with Drizzle 41 5 39 3.9 93 93 NW 16 26 29.91 1013 6 10 0.00 0.03
3:30 am 03:30 Cloudy 41 5 39 4 93 93 WNW 13 20 29.91 1013 10 16 0.00 0.00
3:53 am 03:53 Cloudy 41 5 38 3.3 89 89 WNW 16 26 29.91 1013 10 16 0.00 0.03
4:12 am 04:12 Cloudy 41 5 37 3 87 87 WNW 14 22 29.94 1014 10 16 0.00 0.00
4:53 am 04:53 Cloudy 40 4.4 37 2.8 89 89 NW 14 22 29.96 1015 10 16 0.00 0.00
5:36 am 05:36 Cloudy with Light Rain 39 4 37 3 93 93 WNW 14 22 30.00 1016 6 10 0.00 0.00
5:53 am 05:53 Cloudy 39 3.9 37 2.8 93 93 NW 14 22 29.99 1016 8 13 0.00 0.03
6:21 am 06:21 Cloudy 39 3.9 35 1.7 86 86 NW 17 28 30.03 1017 10 16 0.00 0.00
6:53 am 06:53 Cloudy 39 3.9 33 0.6 79 79 NW 15 24 30.05 1018 10 16 0.00 0.00
7:53 am 07:53 Cloudy 40 4.4 32 0 73 73 NW 20 31 30.08 1019 10 16 0.00 0.00
8:34 am 08:34 Cloudy 39 4 34 1 81 81 NW 15 24 30.12 1020 10 16 0.00 0.00
8:43 am 08:43 Cloudy 40 4.4 33 0.6 77 77 WNW 18 30 30.12 1020 10 16 0.00 0.00
8:53 am 08:53 Mostly Cloudy 42 5.6 33 0.6 71 71 NW 21 33 30.11 1020 10 16 0.00 0.00
9:31 am 09:31 Mostly Cloudy 42 5.6 31 -0.6 65 65 NW 21 33 30.12 1020 10 16 0.00 0.00
9:43 am 09:43 Mostly Cloudy 44 6.7 32 0 63 63 NNW 21 33 30.12 1020 10 16 0.00 0.00
9:53 am 09:53 Cloudy 44 6.7 32 0 63 63 NNW 22 35 30.14 1021 10 16 0.00 0.00
10:53 am 10:53 Mostly Cloudy 47 8.3 33 0.6 59 59 NW 18 30 30.16 1021 10 16 0.00 0.00
11:53 am 11:53 Mostly Cloudy 48 8.9 32 0 54 54 NW 12 19 30.20 1023 10 16 0.00 0.00
12:53 pm 12:53 Mostly Cloudy 49 9.4 32 0 52 52 NW 16 26 30.22 1024 10 16 0.00 0.00
1:53 pm 13:53 Mostly Cloudy 53 11.7 34 1.1 48 48 NW 15 24 30.24 1024 10 16 0.00 0.00
2:53 pm 14:53 Mostly Cloudy 54 12.2 35 1.7 49 49 NW 16 26 30.25 1024 10 16 0.00 0.00
3:53 pm 15:53 Partly Cloudy 56 13.3 35 1.7 46 46 NNW 15 24 30.25 1024 10 16 0.00 0.00
4:53 pm 16:53 Partly Cloudy 56 13.3 35 1.7 46 46 NNW 13 20 30.25 1024 10 16 0.00 0.00
5:53 pm 17:53 Mostly Sunny 57 13.9 34 1.1 42 42 NNW 9 15 30.25 1024 10 16 0.00 0.00
6:53 pm 18:53 Mostly Sunny 56 13.3 34 1.1 44 44 NW 9 15 30.26 1025 10 16 0.00 0.00
7:53 pm 19:53 Mostly Sunny 54 12.2 34 1.1 47 47 N 7 11 30.27 1025 10 16 0.00 0.00
8:53 pm 20:53 Mostly Clear 51 10.6 34 1.1 52 52 NNE 6 9 30.29 1026 10 16 0.00 0.00
9:53 pm 21:53 Mostly Clear 50 10 35 1.7 57 57 NE 8 13 30.31 1026 10 16 0.00 0.00
10:53 pm 22:53 Partly Cloudy 49 9.4 35 1.7 59 59 ENE 5 7 30.31 1026 10 16 0.00 0.00
11:53 pm 23:53 Partly Cloudy 49 9.4 35 1.7 59 59 ENE 7 11 30.34 1028 10 16 0.00 0.00

Powered by AerisWeather